arduino.ru alexa rank chart, arduino.ru alexa rank daily changes

arduino.ru alexa rank chart, arduino.ru alexa rank daily changes

arduino.ru
Actual rank:
106 871

RANK HISTORY

Date Rank Diff
2017/10/21 106 871 +453
2017/10/20 106 418 +211
2017/10/19 106 207 +875
2017/10/18 105 332 +2 244
2017/10/17 103 088 +728
2017/10/16 102 360 -439
2017/10/14 102 799 -43
2017/10/13 102 842 -370
2017/10/12 103 212 +459
2017/10/11 102 753 +2 022
2017/10/10 100 731 -3 759
2017/10/09 104 490 +84
2017/10/08 104 406 -224
2017/10/07 104 630 -51
2017/10/06 104 681 +8
2017/10/05 104 673 +687
2017/10/04 103 986 +377
2017/10/03 103 609 -332
2017/10/02 103 941 -964
2017/10/01 104 905 -123
2017/09/30 105 028 +317
2017/09/29 104 711 -343
2017/09/28 105 054 -537
2017/09/27 105 591 -1 838
2017/09/26 107 429 -387
2017/09/25 107 816 +305
2017/09/24 107 511 -3 002
2017/09/23 110 513 -4 400
2017/09/22 114 913 -554
2017/09/20 115 467 +642
2017/09/19 114 825 -730
2017/09/18 115 555 -1 146
2017/09/17 116 701 -441
2017/09/16 117 142 +109
2017/09/15 117 033 +2 642
2017/09/14 114 391 +696
2017/09/13 113 695 +421
2017/09/12 113 274 +642
2017/09/11 112 632 -1 903
2017/09/10 114 535 -88
2017/09/09 114 623 -578
2017/09/08 115 201 -186
2017/09/07 115 387 +496
2017/09/06 114 891 -2 194
2017/09/05 117 085 -1 339
2017/09/04 118 424 -911
2017/09/03 119 335 +102
2017/09/02 119 233 +34
2017/09/01 119 199 +199
2017/08/31 119 000 -76
2017/08/30 119 076 -576
2017/08/29 119 652 -531
2017/08/28 120 183 -1 441
2017/08/27 121 624 +824
2017/08/26 120 800 -281
2017/08/25 121 081 -584
2017/08/24 121 665 +1 081
2017/08/23 120 584 +1 570
2017/08/22 119 014

WIDGET FOR YOUR SITE

DOMAINS WITH THE NEAREST RANK

Domain Rank
wordmaker.info 106 866
allianz.com.tr 106 867
algaworks.com 106 868
topfive.it 106 869
ytmp3.eu 106 870
arduino.ru 106 871
karauri.net 106 872
notre-planete.info 106 873
access-company.com 106 874
bdfutbol.com 106 875
hd-space.org 106 876

DOMAINS WITH THE NEAREST RANK BY TLD .ru

Domain Rank
allcarz.ru 106 777
gama-gama.ru 106 778
guitarlesson.ru 106 830
fmagazin.ru 106 860
synonymizer.ru 106 862
arduino.ru 106 871
kazakh.ru 106 880
amk-team.ru 106 895
humbio.ru 106 966
hr-bo.ru 106 977
smotra.ru 106 994